Location: Cointrin
(46.2167°N, 6.1167°E)
Time: 06:14:04
(UTC+00:00)

BlueWalker 3 - Pass Details

Date: 08 February 2023
Orbit: 497 x 515 km, 53.2° (Epoch: 25 March)

Event Time Altitude Azimuth Distance (km) Brightness Sun altitude
Rises 18:32:15 0° 301° (WNW) 2,607 6.5 -18.0°
Reaches altitude 10° 18:34:27 10° 304° (WNW) 1,724 5.4 -18.4°
Maximum altitude 18:38:20 69° 28° (NNE) 549 1.9 -19.1°
Enters shadow 18:38:59 55° 84° (E) 614 1.9 -19.2°
